Regional Weather Roundup
Issued by NWS

Home | Current Version | Previous Version | Text Only | Print | Product List | Glossary Off
Versions: 1 2 3 4 5 6 7 8 9 10 11 12 13 14 15 16 17 18 19 20 21 22 23 24 25 26 27 28 29 30 31 32 33 34 35 36 37 38 39 40 41 42 43 44 45 46 47 48 49 50

836
ASUS43 KDMX 220906
RWRIA

WEATHER ROUNDUP FOR IOWA
NATIONAL WEATHER SERVICE DES MOINES IA
400 AM CDT SUN OCT 22 2017

NOTE: "FAIR" INDICATES FEW OR NO CLOUDS BELOW 12,000 FEET WITH NO
SIGNIFICANT WEATHER AND/OR OBSTRUCTIONS TO VISIBILITY.

* - THESE STATIONS ARE NOT NWS STATIONS...THUS NOT UNDER NWS
QUALITY CONTROL.  THEY ALSO DO NOT REPORT WEATHER SUCH
AS PRECIPITATION OR FOG.

IAZ001>003-012>014-020>022-031>034-043>046-221000-
   NORTHWEST IOWA

CITY           SKY/WX    TMP DP  RH WIND       PRES   REMARKS
CHEROKEE *     CLOUDY    43  41  93 CALM      29.99R
DENISON *      CLOUDY    46  43  87 CALM      30.01S
LE MARS *      CLOUDY    43  37  81 CALM      29.99S
ORANGE CITY *  PTCLDY    43  39  87 W3        29.99R
SHELDON *      CLOUDY    39  37  93 CALM      29.97R
SIOUX CITY     MOCLDY    41  38  89 CALM      30.00R
SPENCER        CLOUDY    42  39  89 SW6       29.97R
STORM LAKE *   CLOUDY    45  39  81 W7        29.98S
$$

IAZ055>058-069>071-079>083-090>094-221000-
   SOUTHWEST IOWA

CITY           SKY/WX    TMP DP  RH WIND       PRES   REMARKS
ATLANTIC *     MOCLDY    48  45  87 NW3       30.00R
AUDUBON *      CLOUDY    48  43  81 NW3       29.99S
CLARINDA *       N/A     52  43  71 N5        30.01R
COUNCIL BLFS * MOCLDY    48  43  81 W8        30.01R
CRESTON *      CLOUDY    48  46  93 NW3       29.98S
HARLAN  *      CLOUDY    48  43  81 CALM      30.03S
LAMONI         LGT RAIN  49  47  93 NE7       29.97R
RED OAK *      CLOUDY    50  43  76 CALM      30.00S
SHENANDOAH *   CLOUDY    50  45  81 CALM      30.01R
$$

IAZ047>049-059>061-072>074-084-221000-
   CENTRAL IOWA

CITY           SKY/WX    TMP DP  RH WIND       PRES   REMARKS
AMES           CLOUDY    51  45  79 NW3       29.97R
ANKENY *       CLOUDY    50  46  87 NW5       29.97S
BOONE *        CLOUDY    50  43  76 W6        29.96S
CHARITON *     LGT RAIN  50  46  87 N6        29.97S
DES MOINES     CLOUDY    51  46  83 NW7       29.96S
GRINNELL*      RAIN      50  47  91 NW7       29.96S
KNOXVILLE *    CLOUDY    50  48  93 NW5       29.96R
MARSHALLTOWN   LGT RAIN  50  48  93 W3        29.96R
NEWTON *       CLOUDY    50  48  93 NW7       29.96R
PELLA *        LGT RAIN  50  48  93 NW3       29.97F
PERRY *          N/A     49  47  93 NW3       29.98R
$$

IAZ004>006-015-016-023>025-035-036-221000-
   NORTH CENTRAL IOWA

CITY           SKY/WX    TMP DP  RH WIND       PRES   REMARKS
ALGONA *       CLOUDY    48  43  81 NW9       29.95F
CLARION *      CLOUDY    48  46  93 NW7       29.95R
ESTHERVILLE    PTCLDY    45  41  86 W7        29.96R
FORT DODGE *   CLOUDY    48  43  82 VRB3      29.97R
MASON CITY     CLOUDY    48  43  82 W9        29.95S
FOREST CITY *    N/A     48  43  81 W5        29.95R
WEBSTER CITY * CLOUDY    48  45  87 NW5       29.93F
IOWA FALLS *   CLOUDY    50  46  86 W5        29.96S
$$

IAZ007>011-017>019-026>030-037>042-050>054-066-221000-
   NORTHEAST IOWA

CITY           SKY/WX    TMP DP  RH WIND       PRES   REMARKS
CEDAR RAPIDS   LGT RAIN  52  51  97 NW13      29.92S
CHARLES CITY * CLOUDY    50  50 100 CALM      29.92F
CLINTON *      CLOUDY    61  59  93 NW5       29.87F
DECORAH *      DRIZZLE   50  48  93 CALM      29.91R
DUBUQUE        CLOUDY    60  59  96 W6        29.89R
MONTICELLO *   CLOUDY    55  54  94 NW10      29.90S
OELWEIN *      MOCLDY    50  50 100 NW6       29.94R
WATERLOO       CLOUDY    50  48  93 SW5       29.94S
$$

IAZ064-065-067-068-078-221000-
   EAST CENTRAL IOWA

CITY           SKY/WX    TMP DP  RH WIND       PRES   REMARKS
DAVENPORT      LGT RAIN  61  59  93 NW6       29.88F FOG
IOWA CITY      LGT RAIN  55  52  89 NW9       29.93R
MUSCATINE *    CLOUDY    57  55  94 NW9G17    29.89R
QUAD CITIES    LGT RAIN  63  59  87 NW8       29.86F
$$

IAZ062-063-075>077-085>089-095>099-221000-
   SOUTHEAST IOWA

CITY           SKY/WX    TMP DP  RH WIND       PRES   REMARKS
BURLINGTON     CLOUDY    61  61 100 NW9       29.86F
FAIRFIELD *    CLOUDY    52  50  93 NW13G21   29.94R FOG
FORT MADISON * LGT RAIN  57  57 100 W16G22    29.92R
KEOKUK *       HVY RAIN  57  55  94 NW15      29.90R
OSKALOOSA *    LGT RAIN  50  48  93 N13       29.95F
OTTUMWA        RAIN      51  49  92 N12       29.95S
WASHINGTON *   RAIN      55  54  94 NW10      29.93S
$$

ABBREVIATIONS USED IN REMARKS
   TC - TEMPERATURES IN CELSIUS
  WCI - WIND CHILL INDEX
   HX - HEAT INDEX
  VSB - VISIBILITY
$$





USA.gov is the U.S. government's official web portal to all federal, state and local government web resources and services.